Orbital Elements at Epoch 2459000.5 (2020-May-31.0) TDB
Reference: JPL 24 (heliocentric ecliptic J2000)
Element | Value | Uncertainty (1-sigma) | Units |
e | .1077483213255969 | 4.129e-08 | |
a | 2.807658663895729 | 1.8529e-08 | au |
q | 2.505138156005696 | 1.1365e-07 | au |
i | 4.77542091049244 | 4.5974e-06 | deg |
node | 145.8639864493834 | 5.4892e-05 | deg |
peri | 101.5486478968418 | 5.892e-05 | deg |
M | 225.8694616991285 | 2.2787e-05 | deg |
tp | 2459640.735948711366 (2022-Mar-02.23594871) | 0.00011059 | TDB |
period | 1718.362905687334 4.70 | 1.7011e-05 4.657e-08 | d yr |
n | .2095017291216505 | 2.0739e-09 | deg/d |
Q | 3.110179171785762 | 2.0526e-08 | au |
|
| | Orbit Determination Parameters
Additional Information
|